Stündliche Wetter Cedar City

Heute, 25 Januar, Montag

Zeit Temperatur Niederschläge Wind Luftdruck Luftfeuchtigkeit
00:00 -3°C° 0.1 mm 1 m/S 601 mmHg 90%
01:00 -3°C° 0.1 mm 1 m/S 601 mmHg 90%
02:00 -3°C° 0.1 mm 1 m/S 601 mmHg 90%
03:00 -3°C° 0.1 mm 1 m/S 601 mmHg 89%
04:00 -3°C° 0.1 mm 1 m/S 601 mmHg 89%
05:00 -5°C° 0.2 mm 2 m/S 601 mmHg 88%
06:00 -5°C° 0.2 mm 2 m/S 601 mmHg 88%
07:00 -5°C° 0.2 mm 2 m/S 601 mmHg 88%
08:00 -4°C° 0.2 mm 2 m/S 601 mmHg 83%
09:00 -2°C° 0.2 mm 3 m/S 602 mmHg 78%
10:00 -1°C° 0.2 mm 3 m/S 602 mmHg 73%
11:00 -1°C° 0.3 mm 3 m/S 601 mmHg 74%
12:00 -1°C° 0.3 mm 3 m/S 601 mmHg 74%
13:00 -1°C° 0.3 mm 3 m/S 600 mmHg 75%
14:00 -1°C° 0.5 mm 2 m/S 600 mmHg 78%
15:00 -2°C° 0.5 mm 2 m/S 600 mmHg 81%
16:00 -2°C° 0.5 mm 2 m/S 599 mmHg 84%
17:00 -3°C° 0.3 mm 2 m/S 599 mmHg 86%
18:00 -4°C° 0.3 mm 2 m/S 598 mmHg 88%
19:00 -4°C° 0.3 mm 2 m/S 598 mmHg 90%
20:00 -4°C° 0.3 mm 2 m/S 598 mmHg 89%
21:00 -4°C° 0.3 mm 2 m/S 598 mmHg 88%
22:00 -5°C° 0.3 mm 3 m/S 598 mmHg 88%
23:00 -4°C° 0.7 mm 2 m/S 598 mmHg 89%

Morgen, 26 Januar, Dienstag

Zeit Temperatur Niederschläge Wind Luftdruck Luftfeuchtigkeit
00:00 -4°C° 0.7 mm 2 m/S 598 mmHg 91%
01:00 -4°C° 0.7 mm 2 m/S 598 mmHg 93%
02:00 -4°C° 1.7 mm 2 m/S 598 mmHg 93%
03:00 -6°C° 1.7 mm 3 m/S 598 mmHg 94%
04:00 -7°C° 1.7 mm 4 m/S 598 mmHg 94%
05:00 -6°C° 0.4 mm 3 m/S 599 mmHg 94%
06:00 -6°C° 0.4 mm 2 m/S 599 mmHg 94%
07:00 -6°C° 0.4 mm 2 m/S 600 mmHg 94%
08:00 -5°C° 0.3 mm 2 m/S 600 mmHg 92%
09:00 -6°C° 0.3 mm 3 m/S 601 mmHg 90%
10:00 -5°C° 0.3 mm 3 m/S 601 mmHg 88%
11:00 -5°C° 0.2 mm 3 m/S 602 mmHg 87%
12:00 -4°C° 0.2 mm 4 m/S 602 mmHg 86%
13:00 -4°C° 0.2 mm 4 m/S 602 mmHg 84%
14:00 -4°C° 0 mm 4 m/S 602 mmHg 85%
15:00 -5°C° 0 mm 4 m/S 602 mmHg 85%
16:00 -5°C° 0 mm 3 m/S 603 mmHg 86%
17:00 -6°C° 0 mm 3 m/S 603 mmHg 87%
18:00 -8°C° 0 mm 3 m/S 603 mmHg 88%
19:00 -8°C° 0 mm 2 m/S 604 mmHg 88%
20:00 -9°C° 0 mm 3 m/S 604 mmHg 88%
21:00 -9°C° 0 mm 3 m/S 605 mmHg 87%
22:00 -9°C° 0 mm 3 m/S 606 mmHg 86%
23:00 -8°C° 0 mm 3 m/S 606 mmHg 87%

übermorgen, 27 Januar, Mittwoch

Zeit Temperatur Niederschläge Wind Luftdruck Luftfeuchtigkeit
00:00 -8°C° 0 mm 3 m/S 606 mmHg 87%
01:00 -8°C° 0 mm 3 m/S 606 mmHg 87%
02:00 -8°C° 0 mm 3 m/S 606 mmHg 88%
03:00 -9°C° 0 mm 4 m/S 606 mmHg 88%
04:00 -9°C° 0 mm 4 m/S 606 mmHg 88%
05:00 -9°C° 0.1 mm 4 m/S 606 mmHg 87%
06:00 -9°C° 0.1 mm 4 m/S 607 mmHg 87%
07:00 -9°C° 0.1 mm 4 m/S 607 mmHg 86%
08:00 -7°C° 0.1 mm 5 m/S 608 mmHg 84%
09:00 -6°C° 0.1 mm 5 m/S 608 mmHg 82%
10:00 -4°C° 0.1 mm 6 m/S 609 mmHg 80%
11:00 -3°C° 0.1 mm 6 m/S 609 mmHg 79%
12:00 -3°C° 0.1 mm 7 m/S 608 mmHg 78%
13:00 -3°C° 0.1 mm 7 m/S 608 mmHg 77%
14:00 -3°C° 0.2 mm 6 m/S 608 mmHg 78%
15:00 -3°C° 0.2 mm 6 m/S 607 mmHg 80%
16:00 -4°C° 0.2 mm 5 m/S 607 mmHg 81%
17:00 -4°C° 0.3 mm 5 m/S 607 mmHg 83%
18:00 -5°C° 0.3 mm 5 m/S 607 mmHg 85%
19:00 -4°C° 0.3 mm 4 m/S 608 mmHg 87%
20:00 -4°C° 0.3 mm 4 m/S 608 mmHg 88%
21:00 -4°C° 0.3 mm 4 m/S 608 mmHg 88%
22:00 -4°C° 0.3 mm 4 m/S 608 mmHg 89%
23:00 -4°C° 0.1 mm 4 m/S 607 mmHg 89%

28 Januar, Donnerstag

Zeit Temperatur Niederschläge Wind Luftdruck Luftfeuchtigkeit
00:00 -4°C° 0.1 mm 4 m/S 607 mmHg 89%
01:00 -4°C° 0.1 mm 4 m/S 607 mmHg 89%
02:00 -4°C° 0 mm 4 m/S 607 mmHg 89%
03:00 -4°C° 0 mm 3 m/S 607 mmHg 88%
04:00 -4°C° 0 mm 3 m/S 607 mmHg 87%
05:00 -4°C° 0 mm 3 m/S 607 mmHg 86%
06:00 -4°C° 0 mm 3 m/S 607 mmHg 85%
07:00 -4°C° 0 mm 3 m/S 607 mmHg 84%
08:00 -2°C° 0 mm 4 m/S 608 mmHg 79%
09:00 -1°C° 0 mm 4 m/S 608 mmHg 75%
10:00 +1°C° 0 mm 5 m/S 609 mmHg 70%

29 Januar, Freitag

Zeit Temperatur Niederschläge Wind Luftdruck Luftfeuchtigkeit

30 Januar, Samstag

Zeit Temperatur Niederschläge Wind Luftdruck Luftfeuchtigkeit
Mehr zeigen

Wir brauchen deine Erlaubnis

Meteoprog und unser Service Anbieter werden persönliche Daten aufbewahren, so wie Cookies, Geräte Bezeichnung oder ähnliche Technologien von deinem Gerät und Prozess, so wie Persönliche Daten Inhalte und Werbungen, genauso wie social Media und den Verkehr zu analysieren.

  • Aufbewahrung und/oder Zugang zu deiner Geräte Informationen.

    Cookies, Geräte Bezeichnung oder andere Informationen, können aufbewahrt oder Zugang zu deinem Gerät erhalten, für den Grund, der oben angegeben wird.

  • Personalisierte Werbung und Inhalte, Messungen, Einblick in das Publikum und Produkt Entwicklung.

    Werbungen und Inhalte können personalisiert werden, basierend auf ein Profil. Mehr Daten können besser personalisierte Werbungen und Inhalte hinzufügen. Werbung und Inhalte können gezeigt und gemessen werden. Einblicke über das Publikum, welche die Werbung gesehen haben und den Inhalt, können abgeleitet werden. So wie Daten können genutzt werden, um es zu verbessern oder die Benutzer Erfahrung zu verbessern das System und die Software.

Wenn du “Ich stimme zu” klickst, erlaubst du uns, die Cookies zu benutzen die Geräte Bezeichnung, den Web oder ähnliche Technologien zu benutzen. Deine Settings, können in deinem Gerät bei deinem Browser geändert werden.

Für den bestimmten Zweck, berechtigten Interessen beruhen darauf, mehr als auf den Inhalt. Du kannst mehr darüber in unseren Privaten und Cookie Politik lesen.